Regional Weather Roundup
Issued by NWS

Home | Current Version | Previous Version | Graphics & Text | Print | Product List | Glossary On
Versions: 1 2 3 4 5 6 7 8 9 10 11 12 13 14 15 16 17 18 19 20 21 22 23 24 25 26 27 28
000
ASUS45 KSLC 180410
RWRUT

UTAH REGIONAL WEATHER ROUNDUP
NATIONAL WEATHER SERVICE SALT LAKE CITY UT
1000 PM MDT THU APR 17 2014

UTZ001>011-023>025-180500-

NORTHERN UTAH

CITY           SKY/WX    TMP DP  RH WIND       PRES   REMARKS
HILL AFB       CLEAR     61  24  24 E12       29.86S
LOGAN          CLEAR     49  33  54 SW5       29.87R
OGDEN          PTCLDY    59  28  30 S8        29.84S
PROVO AIRPORT  PTCLDY    55  36  47 CALM      29.89S
SALT LAKE CITY MOCLDY    59  30  33 SE9       29.84R
VERNAL         CLEAR     50  25  37 NW5       29.99R
WENDOVER       MOCLDY    66  27  22 N9        29.80R
HEBER CITY     PTCLDY    48  28  46 SE5       29.95S
WEST JORDAN    CLEAR     63  34  34 S15       29.86S

$$

UTZ012>022-026-027-180500-

SOUTHERN UTAH

CITY           SKY/WX    TMP DP  RH WIND       PRES   REMARKS
BRYCE CANYON   CLEAR     40  21  46 W3        30.12R
CEDAR CITY     PTCLDY    53  19  26 SW6       29.99R
MILFORD        CLEAR     57  23  26 S13       29.93R
MOAB/CYNLANDS  CLEAR     57  21  24 CALM      29.97R
PRICE          CLEAR     55  18  23 E8        30.03R
ST GEORGE      PTCLDY    68  21  17 SE7       29.87R

$$

REGIONAL REPORTS     COLORADO/ARIZONA

CITY           SKY/WX    TMP DP  RH WIND       PRES   REMARKS
CRAIG, CO      CLEAR     44  24  45 E3        30.05R
GRAND JUNCTION PTCLDY    51  25  36 NE3       30.02R
RIFLE          CLEAR     48  27  44 SE3       30.06R
MONTROSE       CLEAR     49  29  46 SE8       30.09R
CORTEZ         CLEAR     44  23  43 NE10      30.11R
PAGE, AZ       CLEAR     72  22  15 S9        29.92R
GRAND CANYON   PTCLDY    43  15  32 CALM      30.12R
KINGMAN        MOCLDY    66  16  14 S12       29.93R
FLAGSTAFF      MOCLDY    50  18  28 CALM      30.15R

$$

REGIONAL REPORTS    NEVADA/IDAHO/WYOMING

CITY           SKY/WX    TMP DP  RH WIND       PRES   REMARKS
LAS VEGAS, NV  CLOUDY    81  18   9 S14G23    29.77R
ELY            MOCLDY    55  22  27 S10       29.94R
ELKO           CLOUDY    60  31  33 VRB3      29.78R
POCATELLO, ID  CLEAR     59  24  26 S18G26    29.80F
BURLEY         MOCLDY    62  29  28 S20       29.73F
EVANSTON, WY   CLEAR     48  23  37 S7        30.00S
ROCK SPRINGS   CLEAR     50  20  30 SW9       30.00R

$$



USA.gov is the U.S. government's official web portal to all federal, state and local government web resources and services.